Home > Weather > Norwalk > Past weeks

Flag for USA Weather for the Past 2 Weeks in Norwalk, California, USA

Now
67 °F

Scattered clouds.


Feels Like: 67 °F
Forecast: 56 / 72 °F
Wind: 5 mph from North

Location: Fullerton Municipal Airport

Current Time: Apr 30, 2016 at 8:24:30 PM

Latest Report: Apr 30, 2016 at 6:53 PM


Visibility: 10 mi

Pressure: 29.79 "Hg

Humidity: 44%

Dew Point: 44 °F

Location of NorwalkLocation

Historic Weather in Norwalk — Graph

°F

Norwalk Temperature Yesterday

Maximum temperature yesterday: 70 °F (at 1:53 PM)
Minimum temperature yesterday: 56 °F (at 5:53 AM)
Average temperature yesterday: 62 °F

High & Low Weather Summary for the Past Weeks

 TemperatureHumidityPressure
High91 °F (Apr 17, 12:53 PM)90% (Apr 30, 7:04 AM)30.05 "Hg (Apr 30, 7:04 AM)
Low52 °F (Apr 26, 4:53 AM)5% (Apr 17, 12:53 PM)29.73 "Hg (Apr 27, 11:53 PM)
Average67 °F46%29.91 "Hg
* Reported Apr 15 6:53 PM — Apr 30 6:53 PM, Norwalk, Weather by CustomWeather, © 2016

Note: Actual official high and low records may vary slightly from our data, if they occured in-between our weather recording intervals... More about our weather records

Advertising

Norwalk Weather History for the Previous 24 Hours

Scroll right to see more
 ConditionsComfort  
Time TempWeatherWind HumidityBarometerVisibility
6:53 PM
Sat, Apr 30
67 °FScattered clouds.5 mph44%29.79 "Hg10 mi
5:53 PM69 °FSunny.7 mph42%29.77 "Hg10 mi
4:53 PM71 °FSunny.5 mph41%29.76 "Hg10 mi
3:53 PM71 °FSunny.5 mph42%29.76 "Hg10 mi
2:53 PM71 °FPassing clouds.10 mph42%29.78 "Hg10 mi
1:53 PM70 °FScattered clouds.9 mph47%29.79 "Hg10 mi
12:53 PM69 °FPartly sunny.9 mph49%29.80 "Hg10 mi
11:53 AM65 °FPartly sunny.8 mph56%29.81 "Hg10 mi
10:53 AM66 °FPartly sunny.6 mph54%29.82 "Hg10 mi
9:53 AM63 °FScattered clouds.3 mph63%29.82 "Hg10 mi
8:53 AM59 °FMostly cloudy.No wind78%29.83 "Hg10 mi
7:53 AM57 °FOvercast.3 mph87%29.83 "Hg10 mi
7:04 AM56 °FLight rain. Fog.5 mph90%29.83 "Hg2 mi
5:53 AM58 °FOvercast.3 mph78%29.81 "Hg10 mi
4:53 AM57 °FOvercast.3 mph81%29.82 "Hg9 mi
3:53 AM58 °FMostly cloudy.3 mph81%29.83 "Hg5 mi
2:53 AM58 °FOvercast.No wind81%29.83 "Hg10 mi
1:53 AM59 °FOvercast.No wind72%29.86 "Hg10 mi
12:53 AM59 °FOvercast.No wind72%29.87 "Hg10 mi
11:53 PM
Fri, Apr 29
59 °FOvercast.No wind72%29.88 "Hg10 mi
10:53 PM60 °FOvercast.3 mph75%29.89 "Hg10 mi
9:53 PM60 °FOvercast.6 mph75%29.90 "Hg10 mi
8:53 PM60 °FClear.6 mph75%29.91 "Hg10 mi
Weather by CustomWeather, © 2016

See weather overviewHow to use our weather pages